User: anonymous   Login
Location: Unspecified
(0.0000°N, 0.0000°E)
Time: 19:22:46
(UTC+00:00)
Language:

MKA-FKI 1 - Orbit

View from above orbital plane
View from above orbital plane
View from above satellite
View from above satellite

Ground track
Ground track

The orbit is defined by the following mean orbital elements,

1 38711U          26145.58517875 +.00000000 +00000-0 +72118-4 0 00000
2 38711  98.9692 262.1121 0010668 229.9409 130.0834 14.25418919    09
Epoch (UTC): 25 May 2026 14:02:39
Eccentricity: 0.0010668
inclination: 98.9692°
perigee height: 799 km
apogee height: 815 km
right ascension of ascending node: 262.1121°
argument of perigee: 229.9409°
revolutions per day: 14.25418919
mean anomaly at epoch: 130.0834°

The dashed part of the orbit path shows where the satellite is in the earth's shadow,  

DLR